Sidney-Richland, MT

5:30 PM MDT on September 25, 2017 (GMT -0600)
Sidney-Richland Municipal

Weather History for KSDY - November, 2014

Change the Weather History Date:

Friday, November 14, 2014

  Actual Average Record
Temperature  
Mean Temperature -3 °F -  
Max Temperature 10 °F 41 °F 64 °F (2001)
Min Temperature -16 °F 19 °F -16 °F (2014)
Degree Days  
Heating Degree Days 68    
Moisture  
Dew Point -17 °F    
Average Humidity 57    
Maximum Humidity 100    
Minimum Humidity 27    
Precipitation  
Precipitation 0.00 in - - ()
Sea Level Pressure  
Sea Level Pressure 30.25 in    
Wind  
Wind Speed 1 mph (WSW)    
Max Wind Speed 10 mph    
Max Gust Speed -    
Visibility 10 miles    
Events      
Averages and records for this station are not official NWS values.
T = Trace of Precipitation, MM = Missing Value Source: NWS Daily Summary

Daily Weather History Graph

Daily Weather History Graph

Search for Another Location

Airport or City:

Trip Planner

Search our weather history database for the weather conditions in past years. The results will help you decide how hot, cold, wet, or windy it might be!

Date:

Astronomy

Nov. 14, 2014 Rise Set
Actual Time 7:00 AM MST 4:21 PM MST
Civil Twilight 6:27 AM MST 4:54 PM MST
Nautical Twilight 5:49 AM MST 5:32 PM MST
Astronomical Twilight 5:13 AM MST 6:08 PM MST
Moon 11:47 PM MST (11/14) 12:44 PM MST (11/14)
Length of Visible Light 10h 27m
Length of Day
9h 20m
Waning Gibbous, 49% of the Moon is Illuminated
Nov 14
Waning Gibbous
Nov 22
New
Nov 29
First Quarter
Dec 6
Full
Dec 14
Last Quarter

Hourly Weather History & Observations

Time (MST) Temp. Windchill Dew Point Humidity Pressure Visibility Wind Dir Wind Speed Gust Speed Precip Events Conditions
12:15 AM -11.2 °F - -16.6 °F 77% 30.31 in 10.0 mi Calm Calm - N/A   Clear
12:35 AM -11.2 °F - - N/A% 30.30 in 10.0 mi Calm Calm - N/A   Clear
12:55 AM -13.0 °F - -13.0 °F 100% 30.30 in 10.0 mi Calm Calm - N/A   Clear
1:15 AM -13.0 °F - - N/A% 30.28 in 10.0 mi Calm Calm - N/A   Clear
1:35 AM -11.2 °F - -11.2 °F 100% 30.28 in 10.0 mi Calm Calm - N/A   Clear
1:55 AM -13.0 °F - - N/A% 30.28 in 10.0 mi Calm Calm - N/A   Clear
2:15 AM -13.0 °F - - N/A% 30.27 in 10.0 mi Calm Calm - N/A   Clear
2:35 AM -11.2 °F - - N/A% 30.27 in 10.0 mi Calm Calm - N/A   Clear
2:55 AM -13.0 °F - -29.2 °F 44% 30.27 in 10.0 mi Calm Calm - N/A   Clear
3:15 AM -13.0 °F - -25.6 °F 53% 30.27 in 10.0 mi Calm Calm - N/A   Clear
3:35 AM -14.8 °F - -27.4 °F 53% 30.27 in 10.0 mi Calm Calm - N/A   Clear
3:55 AM -14.8 °F - -27.4 °F 53% 30.26 in 10.0 mi Calm Calm - N/A   Clear
4:15 AM -14.8 °F - -25.6 °F 58% 30.26 in 10.0 mi Calm Calm - N/A   Clear
4:35 AM -14.8 °F - -27.4 °F 53% 30.26 in 10.0 mi Calm Calm - N/A   Clear
4:55 AM -14.8 °F - -23.8 °F 64% 30.26 in 9.0 mi Calm Calm - N/A   Clear
5:15 AM -14.8 °F - -27.4 °F 53% 30.26 in 10.0 mi Calm Calm - N/A   Clear
5:35 AM -14.8 °F - -23.8 °F 64% 30.25 in 10.0 mi Calm Calm - N/A   Clear
5:55 AM -14.8 °F - -27.4 °F 53% 30.25 in 10.0 mi Calm Calm - N/A   Clear
6:15 AM -14.8 °F - -23.8 °F 64% 30.25 in 10.0 mi Calm Calm - N/A   Clear
6:35 AM -16.6 °F - -27.4 °F 58% 30.25 in 10.0 mi Calm Calm - N/A   Clear
6:55 AM -16.6 °F - -27.4 °F 58% 30.25 in 10.0 mi Calm Calm - N/A   Clear
7:15 AM -14.8 °F - -23.8 °F 64% 30.26 in 10.0 mi Calm Calm - N/A   Clear
7:35 AM -16.6 °F - -27.4 °F 58% 30.26 in 10.0 mi Calm Calm - N/A   Clear
7:55 AM -13.0 °F - -20.2 °F 70% 30.26 in 10.0 mi Calm Calm - N/A   Clear
8:15 AM -11.2 °F - -20.2 °F 64% 30.26 in 10.0 mi Calm Calm - N/A   Clear
8:35 AM -11.2 °F - -20.2 °F 64% 30.27 in 10.0 mi Calm Calm - N/A   Clear
8:55 AM -9.4 °F - -18.4 °F 65% 30.26 in 10.0 mi Calm Calm - N/A   Clear
9:15 AM -7.6 °F - -18.4 °F 59% 30.26 in 7.0 mi Calm Calm - N/A   Clear
9:35 AM -5.8 °F - -16.6 °F 60% 30.26 in 10.0 mi Calm Calm - N/A   Clear
9:55 AM -4.0 °F - -14.8 °F 60% 30.27 in 4.0 mi Calm Calm - N/A   Clear
10:15 AM -2.2 °F - -13.0 °F 60% 30.26 in 9.0 mi Calm Calm - N/A   Clear
10:35 AM -0.4 °F - -11.2 °F 60% 30.26 in 10.0 mi Calm Calm - N/A   Clear
10:55 AM -0.4 °F - -11.2 °F 60% 30.26 in 10.0 mi Calm Calm - N/A   Clear
11:15 AM 1.4 °F - -9.4 °F 61% 30.25 in 10.0 mi Calm Calm - N/A   Clear
11:35 AM 3.2 °F - -5.8 °F 66% 30.24 in 10.0 mi Calm Calm - N/A   Clear
11:55 AM 3.2 °F - -7.6 °F 61% 30.24 in 10.0 mi Calm Calm - N/A   Clear
12:15 PM 5.0 °F - -7.6 °F 56% 30.23 in 10.0 mi Calm Calm - N/A   Clear
12:35 PM 5.0 °F - -7.6 °F 56% 30.23 in 10.0 mi Calm Calm - N/A   Clear
12:55 PM 6.8 °F - -7.6 °F 52% 30.22 in 10.0 mi Calm Calm - N/A   Clear
1:15 PM 6.8 °F - -5.8 °F 56% 30.22 in 10.0 mi Calm Calm - N/A   Clear
1:35 PM 6.8 °F - 3.2 °F 85% 30.22 in 10.0 mi Calm Calm - N/A   Clear
1:55 PM 8.6 °F - -9.4 °F 44% 30.21 in 10.0 mi Calm Calm - N/A   Clear
2:15 PM 8.6 °F - -9.4 °F 44% 30.21 in 10.0 mi Calm Calm - N/A   Clear
2:35 PM 8.6 °F - -5.8 °F 52% 30.21 in 10.0 mi Calm Calm - N/A   Clear
2:55 PM 10.4 °F - -2.2 °F 57% 30.21 in 10.0 mi Calm Calm - N/A   Clear
3:15 PM 8.6 °F - -2.2 °F 62% 30.21 in 10.0 mi Calm Calm - N/A   Clear
3:35 PM 6.8 °F - -2.2 °F 67% 30.21 in 10.0 mi Calm Calm - N/A   Clear
3:55 PM 6.8 °F - -4.0 °F 61% 30.21 in 10.0 mi Calm Calm - N/A   Clear
4:15 PM 5.0 °F - -5.8 °F 61% 30.21 in 10.0 mi Calm Calm - N/A   Clear
4:35 PM 3.2 °F - - N/A% 30.21 in 10.0 mi Calm Calm - N/A   Clear
4:55 PM -2.2 °F - - N/A% 30.21 in 10.0 mi Calm Calm - N/A   Clear
5:15 PM -0.4 °F - -25.6 °F 30% 30.22 in 10.0 mi Calm Calm - N/A   Clear
5:35 PM -2.2 °F -16.8 °F -23.8 °F 35% 30.22 in 10.0 mi West 8.1 mph - N/A   Clear
5:55 PM -0.4 °F -16.7 °F -16.6 °F 46% 30.22 in 10.0 mi West 10.4 mph - N/A   Clear
6:15 PM -2.2 °F -18.0 °F -16.6 °F 50% 30.22 in 10.0 mi West 9.2 mph - N/A   Clear
6:35 PM -2.2 °F -18.0 °F -23.8 °F 35% 30.22 in 10.0 mi West 9.2 mph - N/A   Clear
6:55 PM -2.2 °F -16.8 °F - N/A% 30.21 in 10.0 mi WNW 8.1 mph - N/A   Clear
7:15 PM -2.2 °F -18.0 °F -29.2 °F 27% 30.22 in 10.0 mi West 9.2 mph - N/A   Clear
7:35 PM -2.2 °F -18.0 °F -23.8 °F 35% 30.22 in 10.0 mi WNW 9.2 mph - N/A   Clear
7:55 PM -2.2 °F -12.5 °F -22.0 °F 39% 30.22 in 10.0 mi East 4.6 mph - N/A   Clear
8:15 PM -2.2 °F - -18.4 °F 46% 30.23 in 10.0 mi Calm Calm - N/A   Clear
8:35 PM -0.4 °F - -16.6 °F 46% 30.23 in 10.0 mi Calm Calm - N/A   Clear
8:55 PM -2.2 °F -10.4 °F -16.6 °F 50% 30.24 in 10.0 mi SSW 3.5 mph - N/A   Clear
9:15 PM -2.2 °F -10.4 °F -14.8 °F 55% 30.25 in 10.0 mi South 3.5 mph - N/A   Clear
9:35 PM -5.8 °F -16.7 °F -18.4 °F 55% 30.25 in 10.0 mi SSW 4.6 mph - N/A   Clear
9:55 PM -5.8 °F - -16.6 °F 60% 30.25 in 10.0 mi Calm Calm - N/A   Clear
10:15 PM -4.0 °F - -14.8 °F 60% 30.25 in 10.0 mi Calm Calm - N/A   Clear
10:35 PM -4.0 °F - -13.0 °F 65% 30.26 in 10.0 mi Calm Calm - N/A   Clear
10:55 PM -4.0 °F - -9.4 °F 78% 30.26 in 10.0 mi Calm Calm - N/A   Clear
11:15 PM -5.8 °F - - N/A% 30.26 in 10.0 mi Calm Calm - N/A   Clear
11:35 PM -4.0 °F - - N/A% 30.26 in 10.0 mi Calm Calm - N/A   Clear
11:55 PM -4.0 °F - - N/A% 30.26 in 10.0 mi Calm Calm - N/A   Clear